SCP
3 2 2 2 2 2 2 2 1 1 1 1 1 1 2 1 1 1 1 1 0 0 0 0 0 0 0 0 0 0 0 0 0 0 0 0 0 0
2 2 2 2 2 2 2 2 2 1 1 1 1 1 2 1 1 1 1 1 0 0 0 0 0 0 0 0 0 0 0 0 0 0 0 0 0 0
2 2 2 2 2 2 2 2 2 2 1 1 1 2 2 2 2 2 1 1 1 0 0 0 0 0 0 0 0 0 0 0 0 0 0 0 0 0
2 2 2 2 2 2 2 1 2 1 1 2 2 2 3 3 2 2 2 1 1 0 0 0 0 0 0 0 0 0 0 0 0 0 0 0 0 0
2 2 2 2 2 2 2 1 1 1 2 2 2 2 3 3 3 2 2 2 1 0 0 0 0 0 0 0 0 0 0 0 0 0 0 0 0 0
2 2 2 2 2 2 2 2 2 2 2 2 2 2 2 3 3 2 2 2 1 1 0 0 0 0 0 0 0 0 0 0 0 0 0 0 0 0
2 2 2 1 2 1 1 1 1 2 2 2 2 2 2 2 2 2 2 2 1 1 1 1 0 0 0 0 0 0 0 0 0 0 0 0 0 0
2 2 1 1 1 1 1 1 1 1 1 1 1 1 1 2 2 2 2 2 1 1 1 1 1 1 1 1 0 0 0 0 0 0 0 0 0 0
2 2 2 1 1 1 1 1 1 1 1 1 1 1 1 1 1 1 1 1 1 1 1 1 1 1 1 1 0 0 0 0 0 0 0 0 0 0
3 3 2 2 1 1 1 1 1 1 0 0 0 1 1 1 1 1 1 1 1 1 1 1 1 1 1 1 1 0 0 0 0 0 0 0 0 0
3 3 3 2 2 1 1 1 1 1 1 0 0 0 0 1 1 1 0 0 0 0 0 0 0 0 0 1 1 0 0 0 0 0 0 0 0 0
3 3 3 2 1 1 1 1 1 1 1 1 1 1 0 0 0 0 0 0 0 0 0 0 0 0 0 0 0 0 0 0 0 0 0 0 0 0
3 3 3 1 0 0 1 1 1 1 1 1 1 1 1 1 1 1 1 1 0 0 0 0 0 0 0 0 0 0 1 1 1 0 0 0 0 0
3 3 2 1 0 0 0 0 0 0 1 1 1 1 1 1 1 1 1 1 1 1 1 1 1 0 0 0 0 0 1 1 1 1 0 0 0 0
2 2 1 0 0 0 0 0 0 0 0 0 0 0 0 0 1 1 1 1 1 1 1 1 1 1 1 0 0 0 0 1 1 1 1 0 0 0
1 1 0 0 0 0 0 0 0 0 0 0 0 0 0 0 1 1 1 1 1 1 1 1 1 1 1 1 1 1 0 0 0 0 0 0 0 0
0 0 0 0 0 0 0 0 0 0 1 1 0 0 0 0 0 0 1 1 1 1 1 1 1 1 1 1 1 1 1 1 0 0 0 0 0 0
0 0 0 0 0 0 1 1 1 1 1 1 1 0 1 1 1 1 1 1 1 1 1 1 1 1 1 1 1 1 1 1 1 1 1 1 1 0
0 0 0 0 1 1 1 1 1 1 1 1 1 1 1 1 1 1 1 1 1 1 0 0 1 1 1 1 0 0 1 1 1 1 1 1 1 1
0 0 0 0 1 1 1 1 1 1 1 1 1 1 1 1 1 1 1 1 0 0 0 0 0 0 0 0 0 0 0 0 0 0 0 0 1 1
0 0 0 0 1 1 1 0 0 0 0 1 1 1 1 1 0 0 0 0 0 0 0 0 0 0 0 0 0 0 0 0 0 0 0 0 0 1
0 0 0 0 0 1 0 0 0 0 0 0 1 1 1 1 0 0 0 0 0 0 0 0 0 0 0 0 0 0 0 0 0 0 0 0 0 0
0 0 0 0 0 0 0 0 0 0 0 0 0 0 0 0 0 0 0 0 0 0 0 0 0 0 0 0 0 0 0 0 0 0 0 0 0 0
Wind_Speed
4 4 3 3 2 2 1 1 1 2 2 2 2 4 4 3 9 7 5 12 13 12 12 12 11 11 10 10 10 9 9 9 9 9 10 10 11 11
3 3 3 3 3 2 2 2 2 2 2 1 1 2 3 4 9 6 5 10 14 14 14 14 13 13 12 12 12 11 11 11 11 11 11 11 11 11
5 4 4 3 2 2 2 2 2 2 2 2 1 1 2 2 3 3 3 4 7 15 15 15 15 14 14 14 13 13 13 12 12 12 12 12 11 12
5 4 4 4 4 3 3 3 2 2 2 3 2 1 2 4 4 4 5 6 5 10 16 16 16 15 15 15 14 14 14 14 13 13 13 12 12 13
5 4 4 4 4 4 4 3 3 3 3 3 3 2 2 3 4 5 6 4 6 7 11 15 15 15 16 16 16 16 15 15 14 14 14 13 13 13
5 4 4 4 4 4 4 4 4 4 3 3 3 3 3 3 2 3 3 3 5 7 5 7 11 15 17 17 17 17 17 16 16 15 15 14 14 14
4 4 4 5 4 4 4 3 4 3 3 3 3 3 3 2 2 2 4 3 4 4 3 4 4 5 8 12 16 18 18 17 17 16 16 16 16 15
5 4 4 4 5 5 4 4 3 4 4 3 3 3 3 2 2 2 2 3 3 2 2 5 4 4 5 6 10 14 16 17 17 17 17 17 17 16
4 3 5 4 5 4 5 5 5 6 6 4 5 5 4 2 2 3 3 4 5 4 4 6 5 6 5 7 9 11 13 15 16 17 17 17 17 17
3 3 2 1 1 1 3 4 4 4 6 6 5 6 5 3 3 4 5 5 5 5 5 6 5 5 6 5 8 10 12 13 14 15 16 16 17 17
2 2 2 2 2 2 3 3 4 4 6 6 7 7 8 8 6 3 4 5 6 5 4 5 5 5 5 5 7 10 12 12 13 14 15 16 16 15
2 2 2 2 2 3 3 3 4 4 4 4 5 6 7 8 9 7 6 6 5 5 4 4 4 4 5 4 4 4 5 9 12 14 15 15 15 9
1 1 1 2 3 3 3 3 4 3 4 5 4 5 5 4 5 5 5 5 6 6 4 3 4 4 5 5 4 5 5 5 5 7 11 14 15 11
2 1 1 1 3 4 4 5 5 4 4 4 4 4 4 4 3 4 4 5 6 7 6 5 5 5 7 8 7 5 5 5 5 6 6 9 11 14
2 3 3 3 3 4 6 6 5 3 3 4 4 4 3 3 3 3 4 4 6 7 7 7 7 6 6 7 7 6 6 6 5 6 6 6 6 5
2 3 4 5 4 4 3 4 4 4 4 4 4 4 3 3 4 3 4 4 4 5 6 7 6 6 6 7 7 7 7 6 6 7 7 7 6 6
3 3 2 2 1 2 2 2 2 2 3 3 4 4 4 4 4 4 4 4 5 5 5 4 4 5 7 7 7 7 7 7 7 7 7 7 7 7
3 3 2 2 2 2 2 2 2 2 2 3 3 4 4 4 4 4 4 4 5 5 5 5 5 5 5 6 7 7 7 7 7 7 7 8 9 7
2 3 3 3 3 4 3 3 3 3 3 3 3 3 4 4 5 5 5 5 5 5 6 5 5 5 8 9 7 5 7 8 8 8 7 8 9 8
2 3 3 4 4 4 4 4 4 4 4 4 4 4 4 4 5 5 5 5 5 6 6 5 5 5 6 8 9 9 10 9 8 8 9 9 9 10
4 4 4 4 4 4 4 4 5 5 5 5 5 4 4 5 5 6 6 7 6 6 7 7 6 7 6 6 7 8 8 10 11 9 9 9 10 9
5 5 5 5 5 5 5 5 5 5 5 5 5 5 5 5 6 7 6 6 6 7 8 7 7 6 6 7 10 11 11 10 11 14 15 14 9 8
6 6 6 6 5 5 5 6 7 5 5 5 5 5 6 6 6 6 7 6 6 7 8 8 8 7 7 8 9 10 12 12 9 8 8 12 15 18
Wind_Direction
223 224 235 262 262 272 277 272 244 258 248 218 185 179 168 150 160 189 188 197 204 210 215 219 223 228 233 237 241 245 249 251 253 256 259 262 263 265
221 228 221 253 251 242 246 263 260 254 265 234 219 187 175 184 174 201 208 196 205 213 219 222 224 227 230 234 238 242 245 248 249 251 252 254 256 260
222 218 216 244 274 278 246 243 251 245 253 257 242 161 157 193 165 219 218 204 211 217 221 223 225 227 230 233 236 239 242 245 247 249 250 251 253 255
223 227 219 229 232 267 278 263 252 241 239 256 256 242 213 200 199 216 238 244 240 223 218 221 224 227 230 233 236 238 240 242 244 247 249 251 253 255
219 221 223 231 232 234 247 264 266 256 228 242 252 248 234 221 210 221 238 251 265 257 223 222 225 228 231 233 235 237 239 241 242 244 246 249 251 253
223 221 221 226 228 233 241 245 261 273 262 253 257 255 247 233 212 219 244 240 251 264 259 227 225 229 234 237 239 240 240 241 241 242 243 245 247 250
226 223 222 219 219 221 242 238 246 251 258 257 257 261 259 261 246 239 252 255 252 252 268 261 238 235 240 243 245 245 242 241 241 241 242 243 244 246
218 219 226 216 213 216 230 245 254 254 262 263 262 259 261 259 266 273 280 283 278 273 278 278 273 260 247 239 239 238 239 240 241 241 241 241 242 243
210 217 233 225 200 208 220 234 246 248 240 254 265 268 277 287 303 293 284 280 272 279 285 276 268 266 262 268 257 243 241 240 240 240 242 243 245 246
212 207 210 263 274 225 228 232 236 239 233 231 247 260 268 270 264 268 272 273 266 265 260 269 270 268 275 275 278 268 254 246 244 244 243 244 245 246
224 211 192 199 227 235 228 241 251 252 244 248 247 253 258 260 254 262 265 270 276 274 265 268 276 280 279 277 278 275 264 257 253 250 248 247 247 249
204 185 161 196 218 219 231 243 256 269 282 278 264 260 254 252 244 233 242 255 267 275 273 274 281 293 289 275 279 290 282 274 268 260 255 252 252 251
249 186 143 190 225 231 235 245 253 277 283 273 262 254 248 243 237 231 229 237 252 261 277 291 290 288 281 287 287 281 277 279 276 269 262 257 254 241
314 352 92 197 245 248 243 250 264 279 272 275 274 269 267 262 259 252 244 241 241 252 261 263 265 268 278 283 285 282 281 280 279 277 273 271 261 252
342 355 335 284 263 252 240 247 257 253 254 265 274 279 281 286 290 281 274 266 263 261 262 250 251 260 262 272 280 282 288 283 273 275 276 273 271 263
324 310 286 272 262 271 272 238 230 242 252 263 274 280 286 286 281 280 283 284 281 276 264 258 253 255 265 269 274 280 279 279 283 280 278 275 271 265
320 283 271 268 259 256 259 262 253 258 263 271 278 285 287 289 289 290 283 285 281 283 286 281 269 262 259 265 274 275 278 278 275 277 281 282 275 269
328 301 307 315 324 325 320 313 306 311 308 304 305 305 304 302 300 297 290 287 288 290 294 299 301 299 295 279 258 274 281 286 290 286 283 282 282 275
336 321 332 342 349 347 339 332 325 325 321 318 313 309 311 310 306 303 302 300 300 302 301 301 301 302 299 296 290 283 296 295 291 286 279 277 281 279
337 338 344 350 352 343 336 335 333 333 333 328 320 314 313 311 308 305 303 302 303 301 298 297 296 295 291 293 296 294 279 277 285 286 287 284 279 279
1 358 357 348 340 339 340 336 333 329 327 322 314 318 320 315 311 310 307 308 304 298 298 297 294 296 289 289 288 287 287 279 272 274 282 286 286 284
359 354 348 343 344 342 336 332 328 326 327 325 324 323 322 316 313 312 311 312 307 304 303 301 302 303 299 292 291 293 296 295 286 275 263 257 263 272
359 354 351 347 350 348 343 336 332 331 334 331 324 322 321 316 311 307 305 300 299 302 305 305 304 300 295 290 290 291 294 298 297 296 288 277 264 259